Wind_Speed
49 69 68 70 65 57 57 55 56 51 47 44 44 47 45 43 39 39 39 37 38 39 40 41 40 41 37 37 37 29 33 31 33 32 34 25 27 27 25 26 30 30 28
45 47 69 83 76 61 64 59 61 56 52 53 49 45 43 40 38 38 41 42 43 41 41 41 38 42 38 37 36 23 30 31 40 29 34 31 31 28 29 29 30 31 26
44 56 62 67 64 59 62 64 65 64 57 55 49 47 44 46 42 42 43 45 47 47 42 41 38 39 38 36 33 27 31 24 35 34 33 32 34 29 28 26 22 28 30
36 44 51 57 58 64 64 59 58 65 50 51 49 50 46 46 47 48 52 52 52 47 45 43 41 38 39 36 36 34 30 29 34 38 33 36 31 25 26 26 22 22 20
39 42 45 45 38 54 57 50 38 51 47 47 54 56 48 49 51 55 54 48 52 48 47 45 43 40 35 38 40 35 33 29 21 25 37 36 31 29 29 29 24 22 17
37 41 46 49 53 53 55 65 51 51 49 56 59 60 61 58 60 61 61 57 59 55 53 48 46 42 39 35 42 40 35 39 36 32 31 21 35 28 27 31 30 24 27
40 41 43 46 49 50 50 63 66 61 64 61 64 65 66 64 66 63 62 62 64 59 58 54 49 48 42 40 40 43 42 43 40 36 35 31 25 32 28 30 30 23 23
41 42 44 45 46 47 49 52 55 57 62 63 64 69 68 66 64 62 63 63 66 65 61 59 54 52 48 43 42 43 44 44 41 34 33 26 24 30 33 35 30 22 25
35 38 40 43 45 46 49 50 53 56 57 58 60 61 61 60 63 64 63 61 63 65 64 62 60 55 53 47 44 45 43 44 45 40 38 32 41 30 34 34 31 16 16
37 38 41 43 44 45 47 50 52 54 55 57 59 60 61 62 62 62 63 61 61 62 62 60 58 55 55 52 48 47 46 46 44 42 38 35 32 30 34 33 31 19 14
44 45 45 46 47 47 49 52 54 56 57 56 56 60 59 59 60 55 53 60 58 62 65 60 60 56 56 54 49 48 48 47 46 43 42 40 36 35 31 31 33 27 24
45 46 48 48 47 47 48 48 49 50 48 46 48 49 48 49 48 49 49 49 45 47 45 47 53 56 56 54 52 49 49 48 48 46 44 42 39 34 44 44 38 42 31
44 44 43 42 43 44 44 45 46 46 46 48 49 49 51 51 50 48 47 44 45 46 44 44 44 44 50 54 53 51 50 49 48 47 46 45 43 45 39 36 34 27 28
36 38 40 41 42 43 44 45 46 47 47 47 46 45 45 45 46 47 46 45 44 43 40 40 43 42 40 40 45 51 52 51 51 50 49 46 46 52 47 39 34 27 31
36 37 38 39 40 41 42 42 43 44 43 42 42 43 44 44 43 41 40 41 42 42 41 39 39 41 39 39 38 39 43 47 50 54 54 52 49 46 47 47 39 38 33
33 35 36 37 38 38 37 38 40 39 39 40 39 41 42 38 36 35 36 37 39 39 37 38 40 40 36 35 35 37 36 36 36 38 44 50 50 46 45 48 51 47 39
33 34 34 35 35 35 35 33 33 37 37 39 41 37 32 32 33 33 34 35 37 37 35 35 38 40 38 37 36 35 36 37 38 37 35 36 47 62 50 50 50 46 49
31 32 31 32 33 33 33 33 31 31 33 39 40 36 30 32 33 34 34 34 35 35 34 33 35 39 38 38 36 34 34 37 40 42 42 41 39 39 43 57 49 54 58
35 34 33 32 31 31 31 31 29 29 30 32 35 35 34 33 34 34 32 32 31 30 30 31 34 40 42 43 41 40 38 37 39 42 43 44 44 43 43 46 55 59 54
37 36 34 32 31 30 30 30 29 28 28 29 31 33 32 32 33 33 31 30 23 24 22 24 28 33 37 44 44 42 41 41 41 41 43 44 44 44 46 46 50 52 61
37 37 37 35 33 31 29 29 28 26 25 27 28 29 31 30 28 31 31 27 24 23 22 23 24 27 30 33 36 38 40 41 42 42 43 44 43 45 47 45 47 51 54
37 38 37 34 31 30 29 27 24 23 23 23 23 25 26 27 26 25 29 28 26 24 22 25 27 29 31 34 34 34 37 39 40 40 40 41 40 42 46 46 46 53 55
38 39 37 33 28 26 24 20 18 18 19 21 22 25 25 24 23 23 26 29 29 28 26 24 24 26 28 30 32 33 35 36 36 37 37 37 37 46 46 43 46 53 60
39 35 28 24 21 18 14 14 15 16 18 21 23 25 25 24 23 21 22 25 28 30 28 27 26 26 27 29 31 33 33 34 34 34 35 36 40 46 45 45 48 60 72
24 20 21 18 15 13 11 12 14 17 20 24 26 26 25 27 27 24 22 24 23 28 31 27 24 23 24 26 28 31 32 32 31 33 35 38 42 48 47 48 58 67 70
18 18 15 12 10 6 10 13 18 22 24 25 26 27 28 29 29 27 22 21 22 22 30 27 23 20 21 23 25 28 29 29 32 33 36 39 44 47 51 56 60 52 45
Wind_Direction
271 254 255 258 251 245 251 255 257 262 265 266 271 276 274 276 279 283 286 287 289 294 293 288 284 285 285 290 292 296 265 254 252 250 252 250 253 254 260 267 277 285 290
285 286 264 253 252 244 247 250 253 257 263 265 266 269 272 272 275 279 287 291 294 295 290 284 282 280 279 282 282 292 257 254 253 249 256 250 252 256 265 271 279 288 283
272 260 252 244 236 243 249 249 249 255 258 265 262 264 265 267 271 276 282 288 290 294 297 288 280 277 277 276 280 268 251 291 265 234 244 252 254 260 264 274 286 293 271
275 264 249 250 250 251 250 249 258 261 260 259 256 259 262 268 275 282 287 285 283 285 291 290 281 275 272 269 265 266 270 279 278 236 232 250 252 262 276 268 285 307 279
264 272 273 279 268 267 256 255 257 264 263 264 258 261 266 267 272 281 283 283 281 277 279 281 282 274 271 270 266 261 260 266 245 268 243 247 253 263 271 268 275 286 274
273 267 266 271 269 271 269 250 261 266 265 264 258 258 263 266 273 275 277 276 277 277 278 275 276 274 267 261 262 259 253 256 248 261 230 260 245 247 263 266 271 265 268
276 274 270 267 266 266 258 253 265 262 259 260 261 259 261 261 267 271 270 269 270 268 270 269 269 271 265 259 257 259 252 254 247 252 235 261 257 240 252 257 262 248 248
278 276 275 273 271 270 268 265 264 262 262 265 264 263 263 261 261 262 265 266 265 265 266 265 264 265 265 259 251 253 254 249 248 244 239 251 232 230 252 246 252 245 249
285 286 283 277 274 272 271 268 267 268 268 267 266 267 267 267 268 267 266 268 269 266 266 267 265 262 262 259 252 247 249 248 246 247 238 239 239 232 227 238 242 240 250
294 291 289 287 284 280 278 277 275 272 268 268 269 269 269 268 266 267 266 267 267 268 267 264 262 257 255 255 252 248 243 244 246 245 242 238 236 235 215 225 244 241 251
294 294 291 289 286 284 281 278 276 275 275 274 272 273 273 274 273 273 273 270 264 264 264 260 259 255 254 252 249 245 243 240 240 239 241 238 237 242 219 229 238 250 250
291 291 290 288 285 283 280 279 277 277 277 278 276 275 274 272 272 272 272 271 269 266 264 264 256 251 251 251 248 241 240 239 237 236 235 237 234 224 227 240 260 255 244
290 290 288 287 286 285 283 281 280 278 277 275 273 272 271 270 270 269 269 271 269 265 262 259 260 255 249 244 242 240 237 235 235 235 233 232 230 231 225 243 230 230 232
289 287 285 284 283 281 280 279 277 275 274 274 275 276 277 276 273 271 269 267 265 264 262 258 253 251 248 246 240 236 234 233 232 231 231 229 225 222 229 221 219 239 225
292 291 291 289 287 285 284 283 281 279 279 277 280 279 279 277 270 266 266 268 268 266 259 253 249 247 245 241 235 231 230 231 231 229 227 225 224 228 224 219 222 229 221
297 296 295 293 292 290 289 288 290 285 283 283 285 287 282 267 264 267 269 268 266 263 259 250 243 245 241 235 229 228 228 226 225 225 227 224 216 216 208 218 224 218 219
299 298 297 295 293 293 292 289 288 289 289 292 295 292 277 258 262 268 273 273 270 261 256 250 239 238 237 232 226 224 226 226 225 224 220 217 217 219 214 210 208 207 211
305 306 304 301 298 297 295 293 291 285 284 292 298 297 283 264 265 270 277 279 273 260 254 247 237 231 230 226 223 222 224 226 227 227 226 224 223 217 216 211 214 219 214
308 308 307 308 305 301 296 295 293 287 284 291 297 297 291 278 271 271 274 283 272 261 254 244 236 231 227 224 227 229 231 231 228 225 225 226 223 224 223 216 216 219 214
308 310 311 309 306 302 299 296 294 290 290 295 298 298 294 285 277 271 268 276 270 258 246 238 234 233 229 230 230 230 230 230 226 223 224 225 227 229 225 221 219 220 222
309 310 311 309 305 301 297 293 293 295 296 302 301 299 297 293 283 270 268 261 261 252 240 232 228 228 229 228 227 227 228 227 225 226 225 225 229 228 220 223 223 218 217
314 314 311 307 302 298 296 293 294 298 303 305 306 308 307 303 291 277 263 256 251 250 246 235 232 232 231 228 227 229 227 226 228 229 228 228 231 226 219 224 225 218 208
316 317 315 310 302 296 295 297 297 301 303 307 308 308 310 309 296 280 269 258 247 244 240 238 233 230 230 229 231 228 228 229 230 230 229 232 227 216 216 221 220 212 198
314 316 315 312 307 305 305 305 305 307 310 311 312 311 309 310 312 291 274 264 250 239 240 235 233 234 233 231 228 226 226 226 226 228 231 227 217 214 218 217 213 203 196
320 323 323 319 315 314 318 312 312 313 313 312 313 313 309 306 303 301 280 262 254 236 229 235 233 233 232 230 225 221 220 221 227 225 224 220 214 211 214 215 210 205 209
331 329 330 333 330 354 352 340 332 322 317 314 313 310 307 305 302 290 283 258 248 236 221 220 228 231 229 227 219 218 219 222 223 224 220 217 214 217 213 210 200 192 201
Height
5755 5756 5760 5763 5765 5766 5769 5772 5774 5776 5776 5776 5777 5777 5777 5779 5781 5781 5783 5784 5785 5786 5786 5786 5787 5786 5785 5784 5784 5780 5782 5786 5791 5794 5792 5792 5792 5791 5791 5791 5791 5789 5787
5747 5741 5743 5746 5751 5754 5756 5757 5760 5761 5763 5766 5764 5766 5765 5767 5770 5771 5773 5774 5775 5775 5776 5776 5777 5776 5777 5777 5775 5774 5775 5777 5781 5785 5787 5787 5786 5785 5786 5785 5784 5784 5782
5736 5735 5735 5733 5731 5739 5741 5744 5746 5749 5750 5752 5752 5753 5755 5754 5756 5759 5761 5763 5763 5763 5765 5766 5766 5766 5767 5768 5768 5768 5768 5770 5772 5775 5780 5780 5781 5780 5780 5778 5778 5776 5774
5725 5726 5726 5728 5729 5729 5728 5733 5735 5738 5738 5739 5739 5739 5740 5743 5741 5743 5746 5749 5750 5752 5753 5754 5755 5756 5757 5759 5760 5762 5762 5762 5762 5765 5769 5772 5774 5774 5774 5772 5770 5768 5767
5712 5714 5714 5715 5714 5717 5720 5723 5724 5724 5725 5726 5728 5729 5728 5729 5728 5729 5731 5733 5735 5738 5739 5741 5742 5744 5746 5748 5749 5751 5753 5756 5755 5758 5760 5764 5767 5768 5766 5764 5764 5764 5764
5701 5701 5701 5701 5701 5702 5703 5707 5710 5712 5710 5711 5711 5713 5716 5715 5715 5714 5717 5720 5721 5724 5725 5728 5728 5731 5734 5737 5739 5743 5744 5746 5746 5749 5751 5754 5755 5759 5758 5756 5758 5758 5760
5690 5689 5688 5687 5688 5688 5687 5691 5691 5691 5691 5693 5693 5695 5698 5697 5698 5698 5698 5702 5705 5706 5709 5712 5715 5715 5720 5724 5728 5731 5734 5736 5738 5741 5743 5744 5746 5748 5750 5750 5750 5751 5753
5679 5676 5676 5675 5673 5671 5670 5672 5672 5672 5674 5674 5674 5676 5677 5677 5677 5679 5682 5681 5684 5688 5692 5694 5697 5699 5704 5709 5714 5718 5722 5724 5728 5730 5733 5735 5737 5739 5741 5745 5746 5745 5746
5666 5663 5661 5661 5660 5657 5655 5655 5655 5655 5655 5655 5656 5657 5657 5658 5658 5660 5661 5664 5665 5667 5671 5675 5679 5682 5686 5692 5696 5701 5707 5710 5713 5717 5721 5725 5728 5729 5731 5737 5740 5739 5740
5654 5653 5649 5646 5645 5643 5639 5637 5637 5637 5637 5638 5638 5636 5637 5639 5637 5639 5641 5644 5648 5647 5651 5655 5659 5661 5667 5673 5680 5684 5691 5696 5699 5704 5709 5714 5716 5717 5725 5730 5733 5734 5736
5642 5638 5635 5632 5630 5627 5625 5621 5620 5619 5620 5619 5619 5620 5618 5619 5619 5618 5619 5624 5625 5626 5631 5633 5637 5640 5646 5653 5661 5668 5673 5678 5684 5690 5696 5701 5707 5708 5716 5721 5724 5727 5730
5632 5629 5625 5621 5617 5614 5611 5607 5604 5603 5602 5599 5602 5604 5604 5604 5603 5602 5601 5605 5604 5611 5612 5611 5616 5620 5627 5633 5640 5649 5655 5662 5669 5676 5682 5688 5695 5701 5708 5713 5716 5717 5723
5619 5615 5611 5607 5603 5600 5597 5594 5591 5590 5590 5590 5590 5590 5589 5587 5585 5585 5587 5586 5588 5593 5595 5596 5598 5602 5606 5613 5620 5629 5636 5645 5652 5659 5666 5674 5682 5689 5694 5701 5705 5708 5713
5609 5606 5602 5599 5594 5590 5587 5584 5581 5580 5578 5577 5575 5573 5570 5569 5568 5569 5571 5572 5574 5577 5579 5581 5584 5587 5591 5597 5603 5610 5618 5627 5635 5642 5651 5659 5668 5675 5683 5689 5696 5701 5704
5598 5594 5590 5586 5583 5578 5574 5570 5567 5564 5563 5560 5558 5556 5554 5552 5552 5554 5556 5557 5559 5561 5563 5567 5570 5572 5578 5584 5591 5596 5603 5610 5618 5626 5634 5643 5652 5661 5669 5677 5684 5690 5696
5589 5585 5580 5576 5571 5567 5563 5558 5553 5550 5548 5546 5545 5543 5539 5539 5540 5542 5543 5544 5544 5545 5549 5552 5557 5560 5566 5572 5579 5585 5591 5598 5605 5612 5618 5627 5637 5648 5654 5665 5674 5681 5689
5580 5576 5570 5565 5560 5556 5551 5548 5544 5538 5535 5532 5530 5528 5526 5527 5528 5530 5530 5529 5529 5531 5534 5538 5543 5548 5554 5560 5566 5573 5580 5587 5593 5601 5608 5615 5623 5630 5640 5650 5662 5669 5679
5571 5566 5560 5554 5549 5544 5540 5536 5534 5531 5528 5522 5517 5515 5515 5516 5517 5516 5516 5515 5514 5516 5519 5524 5530 5535 5542 5549 5555 5563 5570 5576 5583 5590 5597 5605 5613 5621 5627 5638 5648 5656 5666
5561 5555 5550 5545 5539 5534 5530 5527 5524 5521 5519 5516 5511 5506 5502 5502 5503 5503 5503 5503 5502 5503 5506 5511 5517 5522 5529 5536 5544 5551 5558 5564 5571 5578 5585 5593 5601 5610 5618 5625 5632 5639 5650
5551 5545 5540 5536 5531 5526 5520 5517 5514 5512 5509 5507 5502 5498 5494 5492 5490 5490 5491 5493 5492 5494 5496 5500 5504 5510 5517 5524 5531 5538 5545 5551 5558 5565 5573 5581 5589 5597 5604 5612 5619 5627 5636
5541 5535 5530 5526 5521 5517 5513 5509 5506 5503 5501 5498 5494 5490 5485 5481 5479 5479 5480 5482 5484 5486 5489 5493 5497 5501 5507 5513 5519 5526 5532 5539 5546 5553 5560 5568 5576 5583 5591 5598 5605 5614 5622
5531 5526 5520 5515 5511 5507 5503 5501 5498 5495 5493 5490 5486 5482 5478 5474 5470 5468 5468 5471 5475 5477 5480 5484 5488 5492 5498 5504 5509 5515 5521 5527 5534 5541 5549 5556 5564 5571 5578 5584 5590 5599 5609
5521 5515 5509 5504 5501 5498 5495 5494 5492 5489 5486 5483 5479 5475 5471 5467 5463 5460 5459 5460 5464 5468 5471 5475 5479 5484 5488 5494 5499 5504 5510 5516 5522 5529 5537 5544 5550 5557 5564 5570 5576 5585 5598
5511 5505 5500 5496 5492 5490 5489 5488 5486 5484 5480 5476 5472 5468 5463 5459 5455 5452 5451 5451 5453 5457 5462 5466 5470 5475 5479 5484 5489 5494 5500 5505 5512 5519 5525 5531 5537 5544 5550 5557 5564 5573 5585
5503 5499 5495 5492 5489 5487 5486 5484 5482 5479 5475 5470 5465 5460 5455 5451 5447 5444 5442 5442 5444 5447 5453 5458 5462 5466 5470 5475 5480 5485 5490 5496 5503 5509 5514 5520 5526 5533 5539 5546 5553 5561 5575
5499 5496 5492 5490 5488 5487 5485 5483 5479 5475 5469 5464 5458 5452 5447 5441 5437 5434 5432 5432 5435 5439 5445 5450 5456 5460 5464 5467 5472 5477 5483 5488 5493 5497 5504 5509 5516 5523 5531 5537 5548 5563 5574